Wind_Speed
17 16 15 14 13 12 13 12 14 17 17 15 15 15 15 15 14 14 14 14 14 13 13 13 13 13 13 12 12 12 12 11 11 10 10 9 8 8 8 9 9 8 8 9 9 8 8 7 6 6 6 6 6 5 6 5 5 6 7 8 8 7 7 6 6 6 6 5 5 4 4 4 5 5 4 4 5 5 5 6 6 8 10 11 12
14 13 13 13 12 12 12 12 15 16 14 14 15 15 15 15 15 14 14 14 13 13 13 13 12 12 12 12 12 12 11 11 11 10 9 9 9 9 9 9 9 9 9 10 9 8 7 7 6 6 6 5 4 4 4 4 5 5 6 7 7 7 6 6 6 6 6 6 6 6 6 5 6 6 5 6 6 6 6 7 7 9 11 12 12
12 12 13 13 12 12 12 13 15 14 12 13 14 14 14 15 14 13 13 13 12 12 12 12 12 12 12 12 11 11 11 11 11 10 9 9 9 9 10 10 9 9 10 10 9 8 7 7 6 5 5 4 4 4 4 4 4 5 6 6 7 7 6 7 7 7 7 7 7 7 7 6 7 7 6 7 6 7 7 7 8 10 12 13 12
11 13 14 13 13 12 12 13 14 12 10 12 14 14 14 14 13 12 12 12 12 12 12 12 11 11 11 11 10 10 10 10 10 9 9 10 10 10 10 10 9 10 10 10 9 8 8 6 5 5 5 5 4 4 4 3 4 5 6 7 7 7 6 7 8 8 8 8 8 8 8 8 8 7 7 7 7 7 7 8 9 10 12 13 12
11 13 14 12 11 11 11 12 10 9 11 12 13 13 14 13 11 11 11 11 11 12 12 12 12 11 11 10 9 10 10 10 9 9 9 10 10 10 11 10 10 11 11 10 9 8 7 6 5 4 5 5 5 4 3 3 4 5 6 7 7 8 7 8 8 8 8 8 8 9 8 9 9 8 8 8 8 8 8 9 10 11 12 13 12
10 12 13 12 11 9 9 9 8 10 12 12 13 13 12 11 10 11 11 11 12 12 12 12 12 11 10 9 10 10 10 10 9 9 10 10 10 10 10 10 10 11 11 10 9 7 6 5 5 5 5 5 5 5 4 3 3 4 5 6 7 8 8 8 8 7 7 8 8 9 9 9 9 8 9 10 9 9 9 9 10 11 12 12 12
9 10 11 12 11 9 8 8 10 11 12 12 12 12 10 10 10 10 11 12 13 13 13 13 12 11 10 10 10 10 10 10 10 10 10 10 10 10 10 10 10 11 11 10 8 7 6 5 5 5 5 5 6 6 5 4 3 4 4 5 6 8 8 7 8 7 7 7 8 9 8 9 9 9 10 11 11 9 9 10 11 12 12 12 12
7 8 9 11 11 10 9 10 11 11 11 12 11 10 9 9 10 11 11 13 14 14 13 13 12 12 11 11 11 11 11 11 11 11 10 10 10 10 10 10 10 10 10 10 8 7 6 6 6 6 6 6 6 6 6 5 4 4 4 4 5 6 7 7 7 8 7 7 7 8 8 9 9 8 9 11 12 10 10 11 11 12 12 12 12
6 7 9 10 11 10 10 11 11 11 11 11 10 9 9 10 11 11 12 13 14 14 13 13 13 12 12 12 12 12 12 12 11 11 11 10 10 9 9 9 9 10 10 9 8 7 7 6 6 6 6 6 6 6 6 6 5 4 4 3 4 5 6 7 7 7 7 7 7 7 7 8 8 8 9 11 12 11 10 11 11 12 12 12 11
7 8 10 11 11 10 10 10 10 10 10 10 9 9 10 11 12 12 13 14 14 13 13 13 13 13 13 13 12 13 12 11 11 10 10 10 9 9 8 8 9 9 9 8 8 7 6 7 6 6 6 6 5 5 5 6 5 4 4 3 3 4 5 6 7 7 6 6 6 6 6 7 7 8 9 10 12 11 10 11 11 11 11 11 11
9 9 11 10 9 9 9 9 9 9 9 10 10 10 11 11 12 12 13 13 13 13 13 14 14 14 14 13 13 12 12 11 10 10 9 8 8 7 7 7 8 8 8 7 7 7 6 7 7 6 6 6 5 5 5 5 5 5 4 4 3 4 5 6 7 7 7 7 7 6 6 6 6 8 9 9 11 11 10 11 11 11 11 10 10
9 9 10 9 8 8 8 8 8 9 9 10 10 11 11 12 12 12 12 13 13 14 14 14 14 14 14 13 13 12 12 12 11 11 10 9 8 6 6 7 8 8 8 8 8 7 7 7 7 6 6 6 5 5 5 5 5 5 5 5 4 4 4 5 6 6 8 8 8 7 6 6 6 8 9 9 11 11 11 11 11 11 11 10 9
8 8 8 7 7 7 8 8 8 9 10 10 11 10 11 11 12 12 12 12 13 14 14 14 14 14 13 12 12 12 12 12 12 12 11 10 9 8 8 8 9 9 9 8 8 8 8 8 7 6 6 6 5 5 5 4 5 5 5 5 5 5 4 4 5 6 7 9 9 8 7 7 7 7 9 10 10 11 11 11 11 11 11 10 10
7 7 6 7 7 7 7 8 9 10 11 11 11 10 11 11 12 12 12 13 14 14 14 13 13 13 12 11 11 11 12 12 12 12 12 11 11 11 10 10 10 10 9 8 8 9 8 8 7 7 7 7 7 7 7 6 5 5 4 4 4 4 4 4 5 6 7 8 9 8 8 7 7 7 8 9 10 11 10 10 11 11 11 11 10
6 6 5 6 6 7 7 9 10 10 11 11 10 10 10 11 12 12 13 13 14 13 13 13 12 11 11 10 11 11 12 13 13 13 13 13 13 12 12 12 11 10 9 8 9 9 10 9 8 8 8 9 10 10 11 10 9 7 6 5 4 3 2 2 3 6 7 8 8 7 7 7 6 6 6 7 9 10 10 10 10 10 10 10 10
6 6 5 5 6 6 8 10 10 10 11 11 10 10 10 11 12 13 14 14 13 13 12 12 11 11 10 10 11 12 12 13 14 14 14 14 14 13 13 12 11 11 10 10 11 12 12 12 11 11 12 12 12 13 13 13 12 11 10 9 7 6 3 2 3 4 6 7 7 7 6 6 5 5 5 6 7 8 9 9 9 9 9 9 10
6 6 6 5 5 6 8 10 10 10 10 10 10 10 10 12 13 14 14 14 13 13 12 12 11 11 11 11 12 12 13 14 15 15 15 15 15 14 14 14 13 13 13 13 13 14 14 15 15 15 14 14 14 15 14 14 13 12 12 11 10 9 7 5 2 3 4 6 7 7 7 7 5 4 4 4 5 6 7 8 8 9 9 9 9
6 6 5 4 5 7 8 9 10 10 10 11 11 10 11 13 14 15 14 14 14 13 13 13 12 12 13 13 14 14 14 15 16 16 16 16 16 16 16 16 16 15 15 15 15 15 16 16 16 16 15 15 15 15 15 15 14 14 13 12 11 10 9 7 5 3 2 4 5 6 6 7 7 6 5 4 4 5 6 6 7 8 9 9 9
5 5 4 5 6 7 8 9 9 10 11 11 11 11 12 14 15 15 15 15 14 15 14 14 14 14 14 15 15 15 16 17 18 18 17 18 18 18 17 17 17 16 16 16 16 16 16 16 16 15 15 14 14 14 15 15 14 14 13 13 13 12 10 9 7 5 3 2 3 4 5 6 6 7 7 6 5 4 5 6 6 6 7 8 9
3 4 4 6 7 8 8 9 9 10 11 12 12 12 13 15 16 16 16 15 16 16 16 15 15 16 17 17 16 16 17 18 19 19 19 19 19 18 18 17 17 17 16 16 16 16 16 15 14 13 12 12 13 12 13 14 13 12 12 12 12 12 12 11 10 8 6 4 2 2 3 4 5 7 8 8 7 6 6 6 6 6 7 8 9
2 3 4 7 8 8 8 9 10 11 12 12 12 13 14 15 16 16 16 16 17 17 16 16 16 17 18 18 17 17 17 18 19 19 19 19 19 19 18 17 17 17 16 15 15 14 14 12 12 11 10 11 11 11 12 12 12 12 11 11 11 11 11 11 11 10 9 7 5 2 1 0 2 4 6 7 8 7 7 7 7 7 7 7 9
1 3 5 8 9 9 9 9 10 11 12 13 13 14 14 15 16 17 17 17 17 17 17 16 17 17 18 17 17 16 17 17 18 18 18 18 18 17 17 16 16 16 15 14 13 13 12 11 11 10 10 10 10 11 11 11 11 11 10 10 11 11 10 10 10 10 10 9 8 5 3 2 0 1 4 5 6 8 8 8 8 8 8 8 8
1 4 6 8 10 9 9 9 10 12 13 13 13 14 14 15 16 17 17 17 17 17 17 17 17 17 17 17 16 16 16 16 17 17 17 16 16 16 15 15 15 14 13 12 12 11 11 11 10 10 10 10 11 11 11 11 11 10 9 10 10 10 10 9 9 9 9 9 8 7 5 4 3 1 1 3 5 7 8 8 8 8 8 8 8
3 5 7 9 9 10 9 10 11 12 12 13 14 14 14 15 16 17 17 18 18 18 17 17 17 17 17 17 16 16 15 15 15 15 15 15 14 14 14 13 13 13 12 11 11 11 11 11 10 10 10 10 10 10 11 11 10 9 9 10 9 10 10 9 9 8 8 8 8 8 7 6 5 4 2 1 3 4 6 8 8 9 8 8 9
5 7 8 8 9 10 10 10 11 12 13 13 13 13 14 15 16 17 18 18 18 18 18 17 17 17 16 16 15 15 14 14 14 14 14 13 13 13 12 12 12 12 11 11 10 10 10 10 10 9 9 9 9 9 10 10 9 8 9 9 9 9 10 9 9 8 8 8 7 7 8 7 6 5 4 2 2 2 3 5 6 7 7 8 8
6 8 8 8 8 9 11 11 12 12 13 13 13 13 14 15 16 17 18 18 18 18 18 18 17 17 16 15 15 14 14 13 13 14 13 13 12 12 12 11 11 11 10 10 9 9 9 9 8 8 7 7 7 8 9 9 8 8 8 9 9 9 10 9 9 9 8 8 8 8 8 7 7 5 5 4 3 3 1 1 2 4 5 6 7
7 9 9 9 8 9 11 12 12 13 14 14 13 14 14 15 16 17 17 18 18 18 18 18 17 16 15 14 14 14 13 13 13 13 13 12 12 11 11 10 10 10 9 8 8 8 8 8 7 6 6 6 7 7 8 8 7 6 7 8 8 8 9 9 8 9 9 9 8 8 8 7 7 6 6 6 3 3 2 1 1 3 3 4 5
8 10 10 9 9 10 12 13 13 13 14 14 14 14 15 16 17 17 17 17 17 18 18 17 16 15 14 14 14 13 13 12 12 12 12 12 11 11 10 10 10 9 8 8 7 7 7 7 7 6 6 6 6 6 6 7 6 5 5 6 7 7 7 8 8 9 8 9 8 8 8 8 8 7 7 6 5 4 3 3 1 1 1 2 3
10 11 11 10 9 11 13 14 14 14 14 14 15 15 16 16 17 17 17 17 16 16 17 16 16 14 14 14 14 13 13 12 11 11 11 11 11 10 9 9 9 9 8 7 7 7 7 7 6 6 7 7 6 6 6 6 6 5 5 5 5 6 7 7 8 8 8 8 8 8 9 9 8 8 8 7 5 4 5 5 4 2 2 2 1
11 12 11 10 10 12 13 15 15 15 15 15 15 16 16 17 17 17 16 16 15 15 15 15 15 14 14 14 14 13 12 12 11 11 10 10 10 9 9 9 8 8 7 7 6 6 6 6 6 7 7 7 7 6 6 6 6 5 5 4 5 5 6 6 7 7 7 8 8 8 9 9 8 9 9 8 6 5 6 5 4 4 4 4 3
12 13 12 11 11 13 14 15 16 16 16 16 16 17 17 17 17 16 16 15 15 14 14 14 14 14 14 14 14 13 12 12 12 11 10 9 9 9 8 8 7 7 6 6 5 5 5 5 6 7 7 7 7 6 7 7 6 5 5 5 5 5 5 5 6 6 7 8 8 8 9 9 8 8 9 8 8 7 7 6 5 4 5 4 4
14 14 12 11 12 13 15 16 16 16 17 17 17 17 18 17 17 16 15 15 14 14 14 14 14 14 15 15 14 14 13 12 12 11 10 9 9 8 7 7 6 7 6 6 5 4 4 4 5 5 6 6 6 6 6 5 5 6 6 6 5 5 4 4 5 6 6 7 8 8 9 9 8 8 9 9 8 8 8 7 6 6 5 5 4
15 14 13 12 13 14 15 16 16 17 17 18 18 18 18 17 17 16 15 15 14 14 14 14 14 14 15 15 14 14 13 12 12 11 10 9 8 7 6 6 6 6 6 6 5 5 4 4 4 4 4 4 5 5 5 4 4 5 6 6 5 5 4 4 5 5 6 7 7 7 8 8 8 8 9 8 8 8 7 8 8 8 7 6 4
15 15 14 14 13 14 16 16 17 17 17 18 18 18 18 17 17 16 15 15 14 14 14 14 14 14 15 14 14 14 13 12 11 10 9 8 6 6 6 6 7 7 6 6 6 6 6 5 5 5 4 4 4 4 4 4 3 4 5 5 5 5 5 5 5 6 6 6 6 6 7 7 7 8 8 8 8 8 8 8 8 9 9 6 4
16 16 16 15 14 14 15 17 17 17 18 18 18 18 18 17 16 16 15 14 15 15 15 15 15 15 14 14 14 13 13 12 10 9 7 6 5 6 6 7 7 7 7 7 7 7 7 6 6 6 5 5 4 4 3 3 4 4 4 5 5 5 6 5 5 6 6 5 5 6 6 6 7 7 7 8 8 8 8 8 8 9 8 7 6
17 17 17 16 14 14 15 16 17 18 18 18 18 17 17 17 16 15 14 14 14 14 15 15 15 15 14 14 13 12 11 10 8 6 5 5 5 6 7 7 7 8 8 7 7 7 7 6 6 5 5 4 4 4 4 4 4 5 5 6 6 5 5 5 4 5 5 5 5 6 6 6 6 6 7 7 8 8 8 8 8 8 7 6 6
17 18 18 16 14 14 15 16 17 17 18 18 18 17 17 16 15 14 14 14 14 14 14 15 15 14 14 13 12 11 10 8 6 5 4 4 5 6 7 7 8 8 8 8 7 6 6 6 5 5 5 4 5 5 5 4 4 5 6 6 7 6 6 5 4 3 4 5 5 5 6 6 6 6 6 7 8 8 8 8 8 8 7 5 6
17 18 18 16 14 14 15 16 16 16 17 17 17 16 16 15 14 13 13 14 14 14 14 14 14 14 14 13 12 11 9 7 5 4 4 4 4 5 6 7 8 8 8 8 7 7 7 7 6 6 6 6 6 6 6 5 5 5 5 6 7 7 6 6 5 4 4 5 6 6 5 6 7 7 6 6 7 7 8 8 8 7 6 5 6
17 18 17 15 12 12 14 14 15 15 16 16 16 15 14 14 14 14 14 14 14 14 14 14 14 14 13 12 11 10 8 6 4 3 3 3 4 5 6 8 8 8 8 8 7 7 7 8 8 8 8 8 8 8 7 7 6 5 5 5 5 6 6 6 6 5 4 5 6 7 6 6 7 7 7 7 7 8 8 8 9 8 7 6 6
18 18 17 14 12 11 12 12 13 14 14 15 15 14 14 14 14 14 14 14 14 14 14 14 14 13 12 12 11 9 7 6 4 2 3 3 4 5 6 7 8 8 8 7 7 8 8 9 9 9 9 9 9 9 8 7 6 6 6 5 5 5 5 6 6 6 5 6 6 8 8 8 8 8 9 8 8 9 9 9 10 10 9 8 7
18 17 17 15 12 12 12 12 12 12 14 15 15 15 15 14 14 14 13 14 14 14 14 14 14 13 12 11 10 9 7 5 3 2 2 3 4 5 6 7 8 8 8 7 8 9 9 10 11 11 11 11 10 9 8 7 6 5 5 6 5 5 5 5 6 7 6 6 7 7 8 8 9 9 10 10 10 10 9 10 10 11 11 11 10
18 17 17 17 14 13 13 12 11 12 13 14 14 14 14 13 13 13 13 13 13 14 14 14 14 13 12 11 10 8 7 5 3 2 3 4 4 5 6 7 7 7 7 7 8 9 10 11 11 12 13 13 13 12 11 9 7 5 5 6 6 6 7 6 6 7 7 7 7 7 8 8 9 10 11 11 11 11 11 11 11 11 12 13 13
18 18 18 18 16 14 13 12 12 12 12 12 12 13 13 13 13 13 12 12 13 13 14 14 14 13 12 10 9 8 6 4 2 2 3 4 4 5 6 6 7 6 6 6 7 8 10 11 12 13 14 14 15 16 15 14 11 9 7 6 6 7 8 8 8 8 8 8 8 8 8 8 9 10 11 12 13 13 12 12 12 13 13 13 14
18 17 17 16 16 15 13 13 13 13 12 11 11 11 11 11 11 12 12 12 13 14 14 14 13 12 11 9 8 7 5 3 1 1 3 4 5 5 5 5 6 5 5 6 6 7 10 11 11 13 14 14 15 16 16 16 15 13 10 8 7 7 8 9 9 9 9 9 8 8 8 8 9 10 11 12 13 13 14 13 13 14 14 14 14
18 17 16 15 16 16 15 15 14 13 12 11 10 9 9 9 10 12 13 14 14 14 14 14 13 12 9 8 7 7 5 3 1 2 3 5 5 5 5 4 4 4 4 4 5 7 10 11 10 10 12 13 14 14 14 14 14 14 12 11 10 10 10 10 9 9 9 9 9 8 8 8 8 9 10 11 12 13 14 14 14 14 14 15 16
16 17 16 17 17 17 17 16 14 13 12 11 9 9 9 9 10 12 14 15 14 14 14 13 13 11 9 8 8 7 5 3 2 2 4 5 5 5 4 3 3 3 3 3 3 6 9 11 10 8 9 12 13 13 13 13 13 13 13 13 13 12 12 11 11 10 10 10 9 9 9 8 7 8 8 9 10 12 13 14 14 14 15 15 17
16 18 18 18 18 17 17 15 14 13 12 11 9 9 9 9 10 11 12 13 13 13 14 13 12 10 9 9 8 6 5 4 3 3 4 5 5 5 4 3 2 2 2 2 2 5 8 10 10 9 9 10 11 12 12 13 13 14 14 14 13 13 13 12 12 11 11 10 10 10 9 9 8 8 8 8 9 10 12 13 14 15 16 16 17
17 17 18 18 18 17 17 16 15 13 11 10 9 9 10 10 11 11 11 12 12 14 14 13 12 11 10 9 8 7 6 5 4 4 4 5 6 5 4 3 2 2 3 2 2 4 7 9 9 8 8 9 10 10 10 12 13 13 14 14 14 14 13 13 13 12 12 11 11 10 9 9 10 9 9 9 9 10 11 12 13 14 16 17 18
17 17 18 18 18 17 18 17 15 14 13 11 11 11 12 13 12 11 11 12 11 12 14 14 13 12 11 10 9 8 7 6 5 5 5 6 6 6 5 4 3 4 4 4 2 3 5 7 7 7 7 8 8 8 10 11 12 13 13 14 14 14 14 14 14 13 13 13 12 11 11 10 10 10 10 11 11 11 12 13 13 14 15 17 18
16 17 18 18 17 17 17 16 15 14 14 13 13 13 14 14 13 12 12 13 11 12 13 14 14 13 12 12 11 9 8 7 6 6 6 7 7 7 6 5 5 5 6 5 4 3 4 5 5 5 5 6 6 8 11 12 13 14 14 14 14 14 15 15 15 15 14 14 13 13 12 11 11 11 11 11 12 12 13 14 14 15 15 16 17
15 15 16 16 16 16 16 16 15 15 14 14 13 13 13 13 12 12 13 12 12 12 13 14 14 14 13 13 12 11 9 9 9 8 8 8 8 9 8 7 7 7 7 7 5 4 3 4 4 4 4 4 6 9 11 13 14 14 14 14 14 14 14 15 15 15 15 14 14 13 13 12 12 11 12 13 13 14 14 14 15 15 15 15 16
Wind_Direction
107 107 110 116 116 112 112 111 99 96 101 105 108 110 110 109 106 100 99 97 97 96 93 90 88 87 87 85 84 82 82 82 81 80 78 80 80 77 72 70 72 75 78 78 79 79 77 73 67 67 70 74 75 73 71 75 84 95 100 101 101 97 93 88 85 84 88 94 101 109 114 123 120 113 121 129 126 120 114 114 128 141 147 148 146
104 102 105 114 116 110 105 98 91 96 106 107 108 107 107 103 98 97 97 96 96 95 92 90 88 87 86 84 82 81 83 82 82 80 81 84 84 82 74 71 70 70 70 68 71 77 80 76 70 69 74 80 84 83 75 76 80 86 94 99 102 100 99 95 91 86 90 97 100 104 112 113 101 102 113 123 121 112 109 111 125 138 145 147 146
105 100 103 111 113 108 101 96 97 106 111 104 103 103 102 98 96 97 97 97 96 93 91 88 86 84 83 81 81 83 84 84 84 84 85 85 84 82 78 74 71 69 69 69 73 79 82 80 78 76 79 88 96 95 86 80 79 84 91 95 98 99 100 98 96 94 95 100 103 107 109 98 89 96 108 117 118 111 109 111 123 136 144 147 146
109 102 102 106 109 106 100 101 107 115 108 100 101 100 99 98 98 98 98 97 94 92 88 86 84 82 80 80 83 86 86 86 87 87 87 83 82 80 78 76 73 71 72 75 79 82 83 83 81 76 76 77 83 92 98 92 79 78 84 87 90 94 99 100 100 100 104 105 105 108 109 100 94 100 107 116 118 112 109 110 121 133 142 147 147
114 108 108 105 105 104 102 108 115 113 103 101 101 100 100 99 99 99 98 96 93 91 88 86 84 82 81 83 87 88 88 89 89 89 85 81 79 76 76 75 75 72 72 75 77 80 84 89 86 78 75 72 74 81 93 98 85 80 84 86 88 92 99 104 103 104 110 111 109 109 112 105 101 106 111 120 122 116 111 111 119 130 140 146 148
116 112 112 112 113 113 115 122 120 108 103 102 101 101 100 99 100 99 98 96 93 91 88 87 86 87 88 91 92 90 90 90 90 88 84 82 79 76 76 77 77 74 73 74 76 79 84 92 89 82 79 77 77 79 84 93 100 96 95 96 96 98 101 105 105 105 110 114 114 113 115 111 106 107 110 117 121 120 117 115 120 130 138 144 148
113 111 113 116 120 124 126 123 115 107 104 103 102 101 100 101 101 100 99 96 92 89 88 88 89 93 96 97 94 91 90 89 89 87 86 84 82 80 79 79 78 76 75 75 77 80 81 89 90 83 79 80 80 80 81 87 103 105 103 104 103 103 103 103 104 104 106 114 118 118 120 117 112 110 112 117 118 122 123 122 125 132 139 145 149
106 105 111 114 119 123 124 118 110 107 106 105 102 102 105 105 103 101 98 93 89 87 87 89 91 94 95 94 90 89 88 87 86 86 87 85 84 83 81 78 76 75 75 75 76 78 79 83 90 89 86 86 84 82 81 83 92 96 102 106 106 107 103 100 100 100 101 109 115 121 125 122 121 119 113 112 115 122 128 129 131 136 141 147 152
100 98 106 111 117 121 121 114 108 108 108 107 106 110 111 106 102 100 95 90 86 86 88 89 90 91 89 86 84 84 84 84 84 85 86 86 86 85 83 80 77 75 76 77 78 77 78 81 90 94 92 90 88 85 82 83 83 84 94 108 118 118 111 100 94 95 96 102 108 117 125 126 126 122 115 114 117 124 129 131 135 139 143 148 154
99 98 101 106 115 116 112 109 108 110 110 109 113 115 110 104 100 96 92 88 85 87 87 86 86 84 82 80 79 78 79 82 84 85 86 88 90 88 88 86 82 80 80 80 81 82 82 85 90 94 92 89 87 84 78 80 80 80 81 96 135 137 128 116 101 94 92 95 98 106 116 127 130 124 126 126 122 126 131 132 136 139 142 146 153
99 97 97 100 105 104 103 103 105 109 111 114 116 114 107 101 97 94 89 87 87 87 85 83 82 80 78 77 76 76 79 82 84 84 84 89 93 94 94 92 89 86 87 86 86 88 89 89 90 91 91 88 85 83 76 73 73 73 70 78 122 144 143 137 120 104 98 96 95 100 107 121 137 134 134 136 130 132 136 137 139 139 141 146 152
98 93 93 94 93 95 97 99 104 110 115 118 116 111 104 97 94 92 89 89 88 85 83 82 80 79 78 77 77 78 80 81 82 82 83 88 95 102 102 98 94 92 93 91 91 93 93 92 92 93 94 92 88 84 80 75 71 71 69 71 96 129 141 145 141 124 111 103 98 102 107 116 135 143 145 147 140 139 143 143 143 142 143 148 152
98 93 90 89 91 94 96 100 107 115 118 117 113 106 99 94 92 92 92 91 87 84 83 82 81 80 80 80 80 80 79 78 79 81 85 90 98 104 104 99 96 96 95 92 93 93 91 90 92 93 89 86 81 74 72 70 71 73 72 70 85 114 133 143 150 148 130 113 105 101 104 111 124 142 153 156 148 145 148 148 147 146 146 150 151
90 87 86 90 96 98 100 106 113 118 118 114 108 102 96 93 93 95 95 91 86 84 84 84 84 82 82 83 83 81 80 80 81 84 89 95 100 103 102 99 98 96 93 89 89 89 88 86 86 84 79 75 70 69 69 69 71 71 71 73 85 103 126 140 150 162 156 132 118 107 101 104 113 129 149 158 155 153 153 152 153 151 151 155 156
79 75 81 91 99 106 109 113 117 118 115 110 105 99 95 95 97 98 96 91 87 85 86 87 85 84 85 86 86 85 84 84 86 90 94 99 103 104 103 101 100 96 90 86 85 85 86 86 85 83 80 77 73 72 72 73 71 69 68 66 74 87 119 152 150 162 169 158 141 127 114 106 108 118 134 150 154 155 159 160 160 157 158 162 164
76 71 74 87 103 114 117 117 118 116 112 107 103 99 98 99 99 98 96 93 91 90 90 90 88 88 89 91 92 91 91 91 92 95 98 101 104 105 104 102 98 95 93 89 87 86 86 87 89 89 86 82 78 75 73 73 71 69 67 64 63 65 74 125 160 165 170 171 166 162 154 135 120 116 121 136 145 151 160 164 165 164 168 171 173
72 71 73 91 110 118 121 121 118 115 111 107 105 103 103 102 100 99 98 97 96 96 95 94 94 95 97 98 99 99 99 98 99 100 102 103 103 102 102 99 96 95 94 92 90 90 88 88 89 89 86 83 79 77 75 73 73 72 69 65 61 60 61 68 108 168 179 180 181 184 186 179 168 148 128 127 135 143 152 159 164 166 171 178 180
66 70 78 102 117 121 125 122 116 113 112 110 109 108 106 103 102 102 102 102 102 101 101 101 101 101 103 104 104 105 105 104 104 103 103 103 101 100 100 99 98 96 94 93 93 91 89 88 88 87 84 82 80 78 76 74 72 72 71 69 65 62 61 62 68 99 163 182 189 195 197 197 195 190 182 168 152 147 147 149 157 162 166 174 180
63 74 90 117 124 128 129 122 115 114 114 114 114 113 109 105 105 106 106 105 105 106 108 109 107 106 107 107 107 108 108 107 106 106 105 104 103 102 100 99 98 96 96 96 95 93 91 90 89 88 86 84 81 80 78 74 70 68 69 70 68 65 64 66 68 74 86 135 187 209 213 211 209 209 209 203 190 172 158 149 152 158 160 167 175
68 87 107 128 131 132 131 124 120 119 118 118 117 115 111 109 109 109 108 107 109 112 115 114 112 111 109 108 109 109 109 108 107 108 107 107 107 105 103 100 98 97 97 96 95 93 90 88 87 85 82 80 79 78 76 74 69 65 63 64 66 64 62 62 65 68 71 84 121 202 227 231 221 219 218 212 205 192 178 165 158 158 162 166 171
83 108 124 135 137 136 132 127 126 124 123 122 120 117 115 113 113 111 110 111 114 118 120 118 116 113 111 110 111 111 109 108 109 110 109 108 108 107 105 104 102 101 99 97 95 93 90 87 82 77 72 70 70 68 68 69 67 63 61 60 62 62 60 59 59 60 62 68 72 76 86 260 228 219 213 210 208 200 189 181 171 166 169 172 173
122 130 135 142 141 138 134 133 131 128 127 126 124 121 119 117 114 113 113 115 120 123 123 121 118 115 114 114 114 113 111 110 110 110 109 109 109 107 106 105 104 104 103 100 97 96 95 91 86 81 73 68 64 61 62 63 62 61 60 59 60 59 60 59 58 57 57 60 63 66 71 73 53 230 207 198 199 194 187 187 184 176 174 178 179
170 148 144 148 145 140 139 138 134 131 131 130 128 125 122 119 117 117 118 121 124 126 126 124 121 119 118 119 119 116 114 112 110 109 109 108 108 107 106 106 105 104 103 102 100 98 94 90 86 82 77 70 65 62 59 58 58 59 59 59 58 57 58 57 57 56 56 55 57 60 62 71 70 41 208 182 184 189 185 185 189 187 185 183 185
177 158 151 153 149 144 145 142 138 135 134 133 132 130 125 123 122 123 124 125 127 129 128 126 123 122 122 123 122 119 116 113 110 108 107 107 105 104 103 102 102 101 100 99 97 93 88 83 79 76 74 71 66 61 57 53 53 55 58 59 58 57 54 52 52 51 52 50 50 51 48 53 62 62 59 126 166 183 188 189 191 194 195 192 192
178 164 157 159 155 151 151 148 144 139 136 136 136 133 129 127 126 127 128 129 131 131 130 128 127 126 126 126 124 121 118 115 111 109 107 106 103 100 97 95 94 93 94 94 91 88 86 82 78 75 73 72 69 65 62 55 47 46 51 56 57 58 55 49 49 48 47 42 39 40 36 36 44 64 69 75 134 139 187 200 203 201 203 206 206
178 171 163 164 164 159 156 153 150 144 140 139 140 137 132 131 130 130 131 132 134 133 132 132 131 131 130 129 127 124 121 117 113 110 108 105 102 98 95 92 90 89 88 86 84 83 84 83 80 77 75 74 71 66 67 62 48 39 38 44 47 50 51 48 46 46 46 41 34 34 32 30 30 44 54 53 117 116 101 180 220 216 208 217 222
179 175 170 169 171 168 162 158 154 148 144 143 143 140 137 135 134 134 135 136 136 136 136 136 135 134 134 133 131 127 124 120 116 112 109 105 101 98 96 93 91 88 84 81 77 75 74 74 72 70 68 65 64 60 65 69 59 44 33 31 37 42 44 42 43 43 43 42 36 34 31 26 23 27 35 36 67 87 62 78 210 232 209 218 232
181 178 176 175 176 173 167 161 157 152 148 146 145 143 141 139 138 139 139 140 140 139 140 140 139 137 137 136 133 129 127 123 119 114 110 107 103 101 99 96 92 87 82 77 72 70 66 63 60 56 55 51 52 52 55 66 65 57 46 31 31 38 40 35 37 39 39 40 38 36 33 28 23 22 28 35 48 51 33 35 35 265 224 216 229
179 179 180 180 177 174 169 162 158 155 152 149 146 145 144 142 143 144 144 143 144 144 144 144 141 139 138 136 133 130 129 127 123 118 113 109 106 103 100 96 92 87 81 73 65 61 57 55 52 49 52 48 43 38 34 46 57 56 48 35 27 31 35 32 31 33 33 35 37 35 36 35 27 20 24 32 41 45 34 27 26 21 24 13 306
175 178 182 184 178 171 168 164 160 158 154 151 149 148 147 147 148 148 148 148 147 147 146 145 143 141 140 137 134 132 131 130 126 121 116 112 108 104 99 93 89 86 78 69 57 48 43 40 39 36 39 43 39 36 27 26 38 44 39 29 24 25 26 26 27 29 27 28 32 32 34 36 26 20 24 22 21 31 34 33 34 34 37 34 22
172 177 184 186 178 169 167 166 164 161 157 154 154 152 152 152 153 153 152 152 151 149 146 145 144 143 142 139 136 134 133 131 126 121 117 112 108 102 97 90 83 78 71 62 49 37 29 24 27 26 23 25 24 25 26 19 17 25 28 18 16 21 17 15 21 25 23 23 26 27 30 34 26 21 25 22 17 20 21 25 39 45 48 50 38
170 174 182 184 178 171 168 168 166 163 160 158 159 157 157 157 157 158 157 155 153 150 148 147 146 144 143 141 138 137 135 131 127 122 117 112 106 100 92 82 71 62 54 45 35 19 7 9 17 21 15 11 9 11 16 13 5 4 10 10 4 7 8 3 13 24 22 20 24 23 25 29 22 19 24 23 16 14 13 12 23 39 48 51 41
168 172 178 180 177 173 170 169 167 165 163 163 163 161 161 161 162 161 160 158 155 152 151 149 147 145 143 142 141 139 135 131 127 123 117 111 102 92 81 69 57 48 39 28 21 8 356 357 0 6 2 355 357 2 2 359 3 356 354 357 351 350 359 356 359 17 23 18 20 21 20 20 14 16 21 20 13 9 10 12 14 25 37 42 37
167 170 174 177 176 172 170 171 170 167 167 167 167 165 164 165 165 164 162 160 157 154 152 150 147 146 144 142 140 138 133 129 126 122 115 105 92 79 65 56 50 39 29 20 15 10 3 2 4 7 0 349 347 353 351 345 353 352 340 338 335 335 343 351 351 1 18 18 11 12 16 14 10 13 15 12 11 5 4 12 17 23 28 21 10
168 171 173 174 172 171 171 171 171 170 171 172 171 168 167 167 168 166 165 162 159 156 153 151 149 147 146 143 140 136 131 129 126 121 112 99 82 66 57 51 44 35 28 24 19 16 12 13 18 19 11 359 350 347 346 342 342 338 326 319 321 324 325 338 350 351 3 9 358 357 5 7 6 10 8 5 8 4 1 8 16 27 28 9 1
171 171 172 173 172 172 172 171 172 173 173 174 172 170 169 169 170 169 167 165 162 158 156 153 151 150 149 146 141 137 133 131 127 119 105 85 66 58 55 48 40 33 29 29 30 25 19 18 19 18 13 0 348 342 341 341 333 324 318 312 311 314 314 324 348 350 345 345 343 344 350 355 357 3 2 358 1 3 3 6 13 24 27 6 358
172 171 173 175 175 174 173 173 174 173 173 174 174 172 171 171 172 171 168 166 163 161 160 157 155 155 153 150 145 141 137 133 127 113 88 68 56 56 56 48 39 33 31 34 36 32 26 23 17 12 8 358 348 342 338 334 327 317 312 308 305 306 307 310 324 335 324 321 328 333 338 340 343 350 352 351 355 360 1 3 10 20 22 5 347
174 173 175 177 176 176 175 175 173 172 173 175 175 173 173 174 174 173 170 166 165 164 164 162 161 160 157 154 149 144 139 133 124 101 74 58 54 56 51 43 37 33 33 36 39 39 35 29 22 17 12 5 358 352 348 339 328 315 306 304 300 299 300 299 303 308 306 309 315 320 327 330 332 335 338 340 346 352 355 355 0 10 14 6 347
178 178 178 177 176 177 177 175 174 174 175 175 175 174 175 177 177 176 173 169 166 166 167 167 165 163 160 156 151 145 140 133 121 91 65 56 55 50 43 37 33 31 33 36 39 39 33 27 21 17 11 5 359 355 353 346 337 327 315 308 300 298 298 295 296 301 301 303 305 307 315 321 322 323 324 327 332 337 342 343 347 352 354 358 347
180 181 180 178 178 179 177 177 178 178 178 177 176 178 179 181 181 178 175 171 168 167 168 168 168 165 161 156 153 149 143 137 127 99 66 56 53 44 37 34 30 29 30 33 35 32 28 23 16 11 8 4 1 354 347 341 339 337 331 324 315 308 305 301 301 302 301 300 299 302 309 314 315 316 316 319 322 326 330 332 334 336 336 340 338
182 183 181 183 183 180 179 179 179 180 182 182 182 183 183 183 183 179 177 174 170 169 169 169 169 167 163 160 158 156 150 146 135 104 68 54 48 39 33 32 29 27 28 28 29 30 27 22 18 20 24 22 16 7 353 341 335 333 333 336 338 332 324 318 313 310 309 305 301 302 306 309 310 310 311 312 314 317 320 321 322 324 324 325 326
183 183 184 187 187 184 183 181 179 182 184 185 186 186 186 185 183 181 179 176 173 171 170 170 172 172 170 169 166 163 159 152 132 83 54 46 41 35 32 32 29 26 26 27 31 33 30 29 36 44 45 42 36 32 25 15 3 353 348 350 355 353 347 343 333 324 320 313 308 307 305 305 305 305 304 305 307 309 311 311 312 313 313 315 317
186 185 185 184 184 185 185 184 185 186 182 182 185 187 187 185 183 183 182 179 176 174 174 177 179 179 178 177 173 169 167 158 124 47 27 33 32 31 32 32 29 26 23 27 35 38 37 45 56 56 51 48 44 42 41 39 37 34 26 14 6 359 353 350 344 337 332 327 322 318 311 306 301 300 300 302 303 304 304 304 303 304 306 307 309
191 188 185 182 181 184 185 187 187 184 178 179 182 183 185 185 183 183 183 183 182 182 182 185 186 186 186 183 179 177 177 172 142 8 9 19 22 26 31 31 28 26 22 28 39 41 43 53 61 57 50 47 45 44 43 43 45 46 42 34 21 9 2 357 352 346 340 336 330 325 320 313 305 301 299 299 300 300 300 300 300 300 300 300 301
193 190 185 182 182 183 183 185 184 178 174 175 175 178 184 188 186 185 185 188 191 190 189 190 192 193 193 188 187 190 194 201 243 330 357 9 13 20 25 26 27 23 17 27 40 42 43 47 51 49 42 39 38 38 38 38 41 42 42 37 31 26 21 16 12 5 357 352 345 339 334 327 316 308 304 300 297 297 298 298 298 297 297 297 297
192 189 185 183 182 181 180 181 180 175 172 170 171 177 186 193 196 193 190 192 195 195 195 197 198 200 199 198 200 203 209 227 266 318 348 359 4 11 15 15 19 10 2 14 35 39 40 40 38 32 26 26 27 26 28 31 31 31 32 30 26 24 22 20 19 15 11 6 1 357 354 349 336 322 313 305 299 297 297 298 299 300 299 298 297
190 187 184 184 182 179 178 180 181 180 176 172 173 183 193 201 206 203 198 198 198 199 202 203 204 206 207 209 213 215 226 249 277 314 339 351 356 0 359 353 347 329 330 342 12 30 35 35 30 22 17 18 16 15 18 21 20 19 19 17 15 12 10 9 8 7 6 4 2 2 1 359 354 343 332 321 312 304 301 302 303 304 304 303 302
190 184 184 186 184 182 182 184 186 187 185 185 188 198 207 213 214 211 207 205 202 201 206 208 209 211 213 216 220 225 240 264 287 309 329 341 348 349 341 321 292 276 285 296 323 16 30 32 26 19 17 15 11 11 12 12 12 12 11 10 9 6 2 0 357 355 354 352 352 353 354 354 352 349 345 339 332 324 317 313 309 307 306 306 306
186 184 187 189 187 186 186 186 187 189 191 195 201 209 216 220 219 216 217 215 208 205 209 211 214 215 218 221 222 227 242 263 283 298 315 328 337 338 328 305 279 264 269 277 288 352 21 29 25 18 16 12 7 4 4 4 6 8 6 3 1 358 355 352 350 349 347 344 342 342 343 343 343 342 342 341 340 336 331 325 319 315 311 309 308
184 186 190 191 191 191 191 190 190 191 192 196 202 209 215 220 222 220 221 221 214 211 214 215 218 219 221 225 227 231 240 256 270 283 299 315 324 326 319 298 274 262 264 269 274 313 4 20 21 17 13 7 359 357 358 357 357 357 355 352 350 349 347 344 343 341 339 338 336 335 336 336 335 334 334 336 338 337 334 330 324 319 315 313 311
188 191 192 193 196 197 197 197 195 191 189 191 198 205 211 219 223 221 222 223 219 218 221 222 222 223 224 227 231 236 241 250 258 267 283 301 311 315 312 295 274 262 263 265 264 285 334 1 10 10 5 356 350 351 354 352 350 349 349 350 350 350 348 345 342 339 334 331 329 328 329 331 330 330 329 331 333 334 333 330 325 319 315 313 313
Height
5898 5898 5899 5900 5901 5901 5901 5901 5900 5900 5902 5903 5904 5904 5905 5905 5905 5905 5905 5906 5906 5907 5906 5907 5907 5907 5907 5907 5907 5907 5907 5907 5907 5907 5907 5907 5907 5907 5908 5908 5909 5910 5910 5910 5910 5911 5911 5912 5912 5912 5912 5912 5912 5912 5913 5913 5913 5912 5912 5912 5912 5912 5912 5913 5913 5913 5913 5913 5913 5913 5912 5912 5912 5912 5912 5912 5912 5913 5913 5913 5913 5914 5914 5916 5917
5899 5899 5900 5902 5902 5901 5900 5899 5898 5900 5903 5904 5904 5904 5905 5905 5905 5906 5906 5907 5907 5907 5907 5907 5907 5907 5907 5907 5907 5907 5907 5907 5907 5908 5908 5908 5908 5908 5909 5909 5910 5911 5911 5911 5912 5912 5912 5912 5912 5912 5912 5913 5913 5913 5913 5913 5913 5913 5913 5913 5913 5913 5913 5913 5913 5914 5914 5914 5914 5914 5913 5912 5912 5912 5912 5913 5913 5913 5913 5913 5913 5914 5915 5916 5917
5901 5900 5901 5902 5902 5902 5901 5900 5900 5902 5904 5904 5904 5904 5905 5905 5906 5907 5907 5907 5908 5908 5908 5908 5907 5907 5907 5908 5908 5908 5908 5908 5908 5908 5908 5909 5909 5910 5910 5911 5911 5912 5912 5912 5912 5912 5912 5913 5913 5913 5913 5913 5913 5913 5914 5914 5914 5914 5914 5914 5914 5914 5914 5914 5914 5914 5914 5914 5914 5914 5914 5913 5912 5912 5913 5913 5913 5913 5913 5913 5914 5914 5915 5917 5918
5902 5901 5902 5902 5901 5901 5901 5901 5902 5904 5904 5904 5904 5905 5906 5906 5907 5908 5908 5908 5908 5908 5908 5908 5908 5908 5908 5908 5908 5908 5909 5909 5909 5909 5909 5910 5910 5911 5911 5912 5913 5913 5913 5913 5913 5913 5913 5913 5913 5913 5913 5914 5914 5914 5914 5914 5914 5914 5914 5914 5914 5914 5914 5915 5914 5914 5915 5915 5915 5915 5914 5913 5913 5913 5913 5914 5914 5914 5914 5914 5914 5915 5916 5917 5919
5904 5904 5904 5904 5902 5902 5901 5903 5904 5905 5904 5905 5906 5906 5907 5908 5909 5909 5909 5909 5909 5909 5908 5908 5908 5908 5908 5909 5909 5909 5909 5909 5909 5910 5910 5911 5911 5912 5912 5913 5914 5914 5914 5914 5914 5913 5913 5913 5914 5914 5914 5914 5915 5915 5915 5915 5915 5915 5915 5915 5915 5915 5915 5915 5915 5915 5915 5915 5915 5915 5915 5914 5914 5914 5914 5914 5915 5915 5915 5915 5916 5916 5917 5918 5919
5905 5906 5907 5907 5907 5906 5905 5906 5906 5906 5905 5906 5907 5908 5909 5909 5910 5910 5910 5909 5909 5909 5909 5909 5909 5909 5909 5909 5910 5910 5910 5910 5910 5910 5911 5911 5912 5913 5913 5914 5914 5915 5915 5914 5914 5914 5914 5914 5915 5915 5915 5915 5915 5915 5915 5915 5915 5916 5916 5915 5915 5916 5916 5916 5916 5916 5916 5916 5916 5916 5915 5915 5915 5914 5914 5914 5915 5916 5916 5916 5917 5917 5918 5919 5920
5907 5907 5908 5908 5908 5909 5908 5908 5907 5907 5907 5908 5908 5909 5910 5910 5911 5911 5910 5910 5910 5910 5910 5910 5910 5910 5910 5910 5910 5910 5910 5910 5911 5911 5912 5912 5913 5913 5914 5915 5915 5915 5915 5915 5915 5915 5915 5915 5916 5916 5916 5916 5916 5916 5916 5916 5916 5916 5916 5916 5916 5916 5916 5916 5916 5917 5917 5917 5916 5916 5916 5915 5915 5914 5915 5915 5915 5916 5917 5917 5918 5918 5919 5920 5921
5908 5908 5908 5908 5908 5909 5909 5908 5908 5908 5908 5909 5910 5910 5911 5911 5911 5911 5911 5910 5910 5911 5911 5911 5911 5911 5911 5911 5911 5911 5911 5911 5911 5912 5912 5913 5913 5914 5915 5915 5915 5916 5916 5916 5916 5916 5916 5916 5917 5917 5916 5917 5917 5917 5917 5917 5917 5917 5917 5917 5917 5917 5917 5917 5917 5917 5917 5917 5917 5917 5916 5916 5915 5915 5916 5916 5916 5918 5918 5918 5919 5919 5920 5921 5922
5908 5908 5909 5908 5909 5909 5909 5909 5908 5909 5910 5911 5911 5912 5912 5912 5912 5912 5911 5911 5911 5911 5911 5911 5911 5911 5911 5911 5911 5911 5911 5912 5912 5913 5913 5914 5914 5915 5915 5916 5916 5916 5916 5917 5917 5916 5916 5917 5917 5917 5917 5917 5917 5917 5917 5917 5917 5917 5917 5917 5917 5917 5917 5917 5917 5917 5917 5917 5917 5917 5917 5917 5917 5917 5917 5917 5917 5919 5919 5919 5920 5920 5921 5921 5922
5908 5908 5908 5908 5909 5909 5909 5909 5910 5911 5911 5912 5912 5912 5912 5912 5912 5912 5912 5912 5912 5912 5912 5912 5912 5912 5912 5912 5912 5911 5912 5913 5913 5914 5914 5914 5915 5916 5916 5916 5916 5917 5917 5917 5917 5917 5917 5917 5917 5917 5917 5917 5917 5917 5917 5917 5917 5917 5917 5917 5917 5917 5917 5917 5918 5918 5918 5918 5918 5918 5918 5918 5918 5918 5918 5918 5919 5919 5920 5920 5920 5921 5921 5922 5922
5908 5908 5908 5909 5909 5909 5909 5910 5911 5912 5913 5913 5913 5913 5912 5912 5912 5912 5912 5912 5912 5912 5912 5912 5912 5912 5912 5912 5912 5912 5913 5913 5914 5915 5915 5915 5916 5916 5917 5917 5917 5917 5918 5918 5918 5918 5917 5917 5917 5917 5917 5917 5917 5917 5917 5917 5917 5916 5916 5916 5917 5917 5917 5917 5917 5918 5918 5918 5918 5918 5918 5918 5918 5919 5919 5919 5919 5920 5921 5921 5921 5921 5922 5922 5923
5908 5909 5909 5909 5910 5910 5910 5911 5912 5912 5913 5913 5913 5913 5913 5912 5912 5913 5913 5913 5913 5913 5913 5913 5913 5912 5913 5913 5913 5913 5914 5914 5915 5915 5916 5916 5917 5917 5917 5917 5918 5918 5918 5919 5919 5918 5918 5918 5918 5917 5918 5918 5918 5918 5917 5917 5917 5917 5916 5916 5916 5916 5917 5917 5917 5918 5918 5918 5918 5918 5919 5919 5919 5919 5919 5919 5919 5920 5921 5921 5922 5922 5922 5923 5923
5908 5909 5910 5910 5910 5910 5911 5912 5912 5913 5913 5913 5913 5913 5913 5913 5913 5913 5913 5913 5913 5913 5913 5913 5913 5913 5913 5914 5914 5914 5915 5915 5916 5916 5917 5917 5917 5918 5918 5918 5918 5919 5919 5919 5919 5919 5919 5918 5918 5918 5918 5918 5918 5918 5918 5917 5917 5917 5916 5916 5916 5916 5917 5917 5917 5918 5918 5918 5918 5918 5919 5919 5919 5919 5919 5920 5920 5920 5921 5922 5922 5922 5922 5923 5924
5909 5910 5910 5910 5911 5911 5912 5912 5913 5913 5913 5913 5913 5913 5913 5913 5913 5914 5914 5914 5914 5914 5914 5914 5914 5914 5914 5915 5915 5915 5916 5916 5917 5917 5917 5918 5918 5918 5919 5919 5919 5920 5920 5920 5920 5920 5919 5919 5919 5919 5919 5919 5919 5918 5918 5917 5917 5917 5916 5916 5916 5916 5917 5917 5917 5918 5918 5918 5918 5919 5919 5919 5919 5919 5919 5920 5920 5921 5921 5922 5922 5922 5923 5923 5924
5909 5910 5910 5911 5911 5912 5913 5913 5913 5913 5914 5913 5913 5913 5913 5914 5914 5915 5915 5915 5914 5915 5915 5915 5915 5915 5915 5916 5916 5916 5917 5918 5918 5918 5918 5919 5919 5919 5919 5920 5920 5921 5921 5920 5920 5920 5920 5920 5920 5920 5919 5919 5919 5919 5918 5918 5917 5917 5917 5916 5916 5916 5917 5917 5917 5917 5918 5918 5918 5919 5919 5919 5920 5920 5920 5920 5920 5921 5921 5921 5922 5922 5923 5924 5924
5909 5910 5910 5911 5911 5912 5913 5913 5913 5914 5914 5914 5914 5914 5914 5915 5915 5915 5915 5915 5915 5916 5916 5916 5916 5916 5917 5917 5917 5918 5918 5919 5919 5919 5920 5920 5920 5920 5920 5921 5921 5921 5921 5921 5921 5921 5921 5921 5920 5920 5920 5920 5919 5919 5919 5918 5918 5918 5918 5917 5916 5916 5917 5917 5917 5917 5918 5918 5918 5919 5919 5919 5920 5920 5920 5920 5920 5921 5921 5921 5922 5922 5923 5924 5924
5910 5910 5910 5911 5912 5912 5913 5913 5913 5914 5914 5914 5914 5914 5915 5915 5916 5916 5916 5916 5916 5917 5917 5917 5917 5918 5918 5918 5918 5919 5919 5920 5920 5920 5921 5921 5921 5921 5921 5922 5922 5922 5922 5922 5922 5922 5922 5922 5921 5921 5921 5921 5921 5920 5920 5919 5919 5919 5918 5918 5917 5917 5917 5917 5917 5917 5918 5918 5918 5919 5919 5919 5920 5920 5920 5920 5921 5921 5921 5922 5922 5922 5923 5924 5924
5910 5910 5911 5911 5912 5912 5913 5913 5913 5914 5914 5914 5914 5915 5916 5916 5916 5916 5917 5917 5917 5918 5918 5919 5919 5919 5919 5919 5919 5920 5920 5920 5921 5921 5922 5922 5922 5922 5923 5923 5923 5923 5923 5923 5923 5923 5923 5923 5923 5923 5923 5923 5922 5922 5921 5921 5921 5920 5919 5919 5918 5918 5917 5917 5917 5917 5918 5918 5918 5918 5919 5919 5919 5920 5920 5920 5921 5921 5921 5921 5922 5922 5923 5923 5924
5910 5911 5911 5912 5912 5913 5913 5913 5914 5914 5914 5915 5915 5916 5916 5917 5917 5917 5918 5918 5918 5919 5920 5920 5920 5920 5920 5920 5920 5921 5921 5922 5922 5922 5923 5923 5923 5923 5924 5924 5924 5924 5924 5925 5925 5925 5925 5925 5925 5925 5924 5924 5924 5923 5923 5922 5922 5922 5921 5920 5919 5919 5918 5918 5918 5918 5918 5918 5918 5918 5919 5919 5919 5920 5920 5920 5921 5921 5921 5921 5922 5922 5923 5923 5923
5910 5911 5911 5912 5913 5913 5914 5914 5914 5915 5915 5915 5916 5917 5917 5917 5918 5918 5919 5919 5920 5920 5921 5921 5921 5921 5922 5922 5922 5922 5923 5923 5923 5924 5924 5924 5925 5925 5925 5925 5925 5925 5926 5926 5926 5926 5926 5926 5926 5926 5926 5925 5925 5925 5924 5923 5923 5923 5922 5921 5920 5920 5919 5919 5919 5918 5918 5918 5918 5918 5918 5919 5919 5919 5920 5920 5920 5921 5921 5921 5922 5922 5922 5922 5923
5911 5911 5912 5912 5913 5914 5914 5914 5915 5915 5916 5916 5917 5917 5918 5918 5919 5919 5920 5920 5921 5921 5922 5922 5922 5923 5923 5923 5923 5924 5924 5924 5925 5925 5925 5926 5926 5926 5926 5926 5926 5926 5927 5927 5927 5927 5927 5927 5927 5927 5927 5926 5926 5925 5924 5924 5924 5923 5923 5922 5921 5921 5920 5920 5919 5919 5919 5919 5919 5918 5918 5918 5919 5919 5919 5919 5919 5920 5921 5921 5921 5922 5922 5922 5922
5911 5911 5912 5913 5913 5914 5915 5915 5916 5916 5916 5917 5917 5918 5919 5919 5920 5920 5921 5921 5922 5922 5923 5923 5924 5924 5924 5924 5925 5925 5925 5925 5926 5927 5927 5927 5927 5927 5927 5927 5927 5927 5928 5928 5928 5928 5928 5928 5928 5928 5927 5927 5926 5926 5925 5925 5924 5924 5923 5923 5922 5922 5921 5921 5920 5920 5920 5920 5919 5919 5918 5918 5918 5918 5918 5918 5918 5919 5919 5920 5921 5921 5921 5921 5922
5911 5911 5912 5913 5913 5914 5915 5916 5916 5917 5917 5917 5918 5919 5920 5920 5921 5921 5922 5923 5923 5924 5924 5924 5925 5925 5925 5926 5926 5926 5926 5927 5927 5928 5928 5928 5929 5929 5929 5929 5929 5929 5929 5929 5929 5929 5929 5929 5929 5928 5928 5927 5927 5926 5926 5925 5925 5925 5924 5923 5923 5922 5922 5922 5921 5921 5921 5920 5920 5919 5919 5919 5919 5918 5918 5917 5917 5918 5918 5919 5920 5920 5920 5921 5921
5911 5912 5912 5913 5914 5914 5915 5916 5917 5917 5918 5918 5919 5920 5921 5921 5922 5922 5923 5924 5924 5925 5925 5925 5926 5926 5926 5927 5927 5927 5927 5928 5928 5929 5929 5929 5929 5930 5930 5930 5930 5930 5931 5931 5930 5930 5930 5930 5929 5929 5929 5928 5928 5927 5926 5926 5926 5925 5925 5924 5923 5923 5922 5922 5922 5922 5921 5921 5921 5920 5919 5919 5919 5919 5918 5918 5918 5918 5918 5919 5919 5920 5920 5920 5920
5911 5912 5912 5913 5914 5915 5916 5916 5917 5918 5919 5919 5920 5921 5922 5922 5923 5923 5924 5925 5925 5926 5926 5926 5927 5927 5927 5928 5928 5928 5929 5929 5929 5930 5930 5930 5931 5931 5931 5931 5931 5931 5931 5931 5931 5931 5931 5930 5930 5930 5929 5929 5928 5928 5927 5927 5927 5926 5925 5925 5924 5923 5923 5923 5923 5922 5922 5921 5921 5920 5920 5919 5919 5919 5919 5919 5918 5919 5919 5919 5919 5919 5919 5920 5920
5911 5912 5912 5913 5914 5915 5916 5917 5918 5919 5920 5920 5921 5922 5922 5923 5923 5924 5925 5926 5927 5927 5927 5928 5928 5928 5929 5929 5929 5930 5930 5930 5931 5931 5931 5932 5932 5932 5932 5932 5932 5932 5932 5932 5932 5932 5932 5931 5931 5931 5930 5929 5929 5928 5928 5927 5927 5927 5926 5926 5925 5924 5923 5923 5923 5922 5922 5921 5921 5921 5920 5920 5919 5918 5918 5918 5918 5919 5919 5920 5920 5919 5919 5919 5920
5911 5912 5912 5913 5914 5915 5916 5917 5918 5920 5920 5921 5922 5923 5923 5924 5924 5925 5926 5927 5928 5928 5928 5929 5929 5929 5930 5930 5931 5931 5931 5932 5932 5932 5933 5933 5933 5933 5933 5933 5933 5933 5933 5933 5933 5933 5932 5932 5932 5931 5931 5931 5930 5929 5929 5928 5928 5928 5927 5926 5926 5925 5924 5924 5923 5923 5922 5921 5921 5921 5921 5920 5919 5919 5918 5917 5918 5918 5918 5918 5920 5919 5919 5919 5919
5911 5912 5912 5913 5914 5915 5916 5917 5919 5920 5921 5922 5923 5923 5924 5925 5926 5927 5928 5928 5929 5929 5929 5930 5930 5931 5931 5931 5932 5932 5932 5933 5933 5933 5934 5934 5934 5934 5934 5934 5934 5934 5934 5934 5933 5933 5933 5933 5932 5932 5932 5932 5931 5930 5929 5929 5929 5929 5928 5927 5926 5926 5925 5924 5924 5923 5922 5922 5921 5921 5921 5920 5920 5919 5918 5918 5918 5918 5917 5917 5919 5919 5919 5919 5919
5910 5911 5912 5913 5914 5915 5917 5918 5919 5921 5922 5923 5924 5924 5925 5926 5927 5928 5929 5929 5930 5930 5931 5931 5931 5932 5932 5932 5933 5933 5934 5934 5934 5934 5934 5935 5935 5935 5935 5935 5934 5934 5934 5934 5934 5934 5934 5933 5933 5933 5932 5932 5931 5931 5930 5929 5929 5929 5929 5927 5927 5926 5925 5924 5924 5923 5923 5922 5921 5921 5921 5921 5920 5919 5918 5918 5918 5918 5918 5917 5918 5919 5919 5919 5919
5910 5911 5912 5913 5914 5916 5917 5918 5920 5921 5922 5923 5924 5925 5926 5927 5928 5929 5930 5930 5931 5931 5932 5932 5932 5933 5933 5933 5934 5934 5934 5935 5935 5935 5935 5935 5935 5935 5935 5935 5935 5935 5935 5935 5934 5934 5934 5933 5933 5932 5932 5932 5932 5931 5930 5929 5929 5929 5929 5928 5927 5926 5925 5925 5924 5923 5923 5922 5922 5921 5921 5921 5920 5920 5918 5918 5918 5918 5918 5918 5918 5919 5919 5919 5919
5910 5911 5912 5914 5915 5916 5917 5919 5920 5921 5922 5923 5925 5926 5926 5927 5928 5929 5930 5931 5932 5932 5933 5933 5933 5933 5934 5934 5934 5935 5935 5935 5935 5935 5936 5936 5936 5936 5936 5936 5936 5935 5935 5935 5935 5934 5934 5933 5933 5932 5931 5931 5931 5931 5930 5929 5929 5929 5928 5928 5927 5926 5925 5925 5924 5923 5923 5922 5922 5921 5921 5921 5921 5920 5919 5918 5918 5918 5918 5919 5919 5919 5919 5919 5919
5909 5911 5912 5914 5915 5916 5918 5919 5920 5921 5922 5923 5925 5926 5927 5928 5929 5930 5930 5931 5932 5933 5933 5934 5934 5934 5934 5934 5935 5935 5936 5936 5936 5936 5936 5936 5936 5937 5937 5936 5936 5936 5935 5935 5934 5934 5934 5933 5933 5932 5932 5931 5931 5931 5930 5929 5929 5928 5928 5927 5927 5926 5925 5925 5924 5923 5923 5922 5922 5921 5921 5921 5921 5920 5920 5919 5919 5918 5918 5919 5919 5919 5920 5919 5918
5910 5911 5912 5914 5916 5917 5918 5919 5921 5922 5922 5923 5924 5926 5927 5928 5929 5930 5930 5931 5932 5933 5933 5934 5934 5934 5935 5935 5935 5936 5936 5936 5936 5936 5937 5937 5937 5937 5937 5937 5936 5936 5935 5935 5934 5934 5934 5933 5933 5932 5932 5931 5931 5931 5930 5930 5929 5928 5927 5926 5926 5926 5925 5925 5924 5924 5923 5923 5922 5921 5921 5920 5920 5920 5920 5920 5919 5919 5918 5919 5920 5920 5920 5919 5918
5910 5911 5913 5914 5916 5917 5918 5920 5921 5922 5923 5924 5925 5926 5927 5927 5928 5929 5930 5931 5932 5933 5933 5934 5934 5935 5935 5935 5936 5936 5936 5937 5937 5937 5937 5937 5937 5938 5937 5937 5937 5936 5935 5935 5934 5933 5933 5933 5932 5932 5931 5931 5931 5930 5930 5929 5928 5927 5927 5926 5925 5925 5925 5924 5924 5924 5923 5923 5922 5921 5921 5920 5920 5920 5920 5920 5919 5919 5919 5919 5920 5920 5920 5919 5917
5910 5911 5913 5914 5916 5917 5918 5920 5921 5922 5923 5924 5925 5926 5926 5927 5928 5929 5930 5931 5932 5933 5933 5934 5935 5935 5935 5936 5936 5936 5937 5937 5937 5937 5937 5937 5938 5938 5937 5937 5937 5936 5936 5935 5934 5933 5933 5932 5932 5931 5931 5930 5930 5929 5929 5928 5927 5926 5926 5925 5925 5925 5924 5924 5924 5924 5923 5923 5922 5921 5921 5920 5920 5920 5920 5919 5919 5919 5919 5919 5920 5920 5920 5918 5917
5910 5911 5913 5914 5916 5917 5918 5920 5921 5922 5923 5924 5925 5926 5927 5927 5928 5929 5930 5931 5932 5933 5934 5934 5935 5935 5936 5936 5937 5937 5937 5938 5938 5938 5937 5937 5938 5938 5937 5937 5937 5936 5936 5935 5934 5934 5933 5932 5931 5931 5930 5929 5929 5928 5928 5927 5926 5925 5925 5924 5924 5924 5924 5924 5924 5924 5923 5923 5922 5921 5921 5920 5920 5920 5919 5919 5919 5919 5918 5919 5919 5920 5920 5919 5918
5910 5911 5913 5914 5916 5917 5918 5920 5921 5922 5923 5924 5925 5926 5927 5927 5928 5929 5930 5931 5932 5933 5934 5935 5935 5936 5936 5937 5937 5937 5938 5938 5938 5938 5938 5937 5938 5938 5937 5937 5936 5936 5936 5935 5935 5934 5933 5932 5931 5931 5930 5929 5928 5927 5927 5926 5926 5925 5924 5924 5923 5923 5923 5923 5923 5923 5923 5922 5922 5921 5921 5920 5920 5919 5919 5919 5919 5918 5918 5918 5919 5920 5920 5919 5917
5910 5911 5913 5914 5916 5917 5918 5919 5921 5922 5923 5924 5925 5926 5927 5928 5929 5929 5930 5931 5932 5933 5934 5935 5935 5936 5937 5937 5938 5938 5938 5938 5938 5938 5938 5938 5938 5938 5937 5937 5936 5936 5936 5935 5934 5934 5933 5932 5931 5931 5930 5929 5928 5927 5926 5925 5925 5924 5924 5923 5923 5923 5922 5922 5922 5922 5922 5921 5921 5921 5921 5920 5920 5919 5919 5919 5919 5918 5918 5918 5918 5919 5919 5919 5917
5909 5911 5913 5914 5916 5917 5919 5920 5921 5922 5923 5924 5926 5927 5927 5928 5929 5929 5930 5931 5932 5933 5934 5934 5935 5936 5936 5937 5937 5938 5938 5938 5938 5938 5938 5938 5938 5938 5937 5937 5936 5936 5935 5935 5934 5934 5933 5932 5932 5931 5930 5929 5928 5927 5926 5925 5924 5924 5923 5923 5923 5922 5922 5921 5921 5921 5921 5921 5921 5920 5920 5920 5920 5919 5919 5919 5918 5918 5918 5918 5918 5918 5918 5918 5917
5909 5911 5913 5915 5916 5918 5919 5920 5921 5922 5924 5925 5926 5927 5927 5928 5928 5929 5930 5931 5932 5932 5933 5934 5935 5935 5936 5937 5937 5937 5938 5938 5938 5938 5938 5938 5938 5937 5937 5937 5936 5936 5935 5935 5934 5933 5933 5932 5931 5930 5929 5928 5927 5926 5925 5924 5924 5923 5922 5922 5922 5922 5921 5921 5920 5920 5920 5920 5920 5920 5920 5920 5920 5919 5919 5919 5918 5918 5918 5918 5917 5917 5917 5917 5917
5909 5911 5912 5914 5916 5917 5919 5920 5921 5922 5924 5924 5925 5926 5927 5927 5928 5929 5930 5931 5931 5932 5933 5934 5934 5935 5936 5936 5937 5937 5937 5938 5938 5938 5938 5938 5938 5937 5937 5936 5936 5936 5935 5935 5934 5933 5933 5932 5931 5930 5929 5928 5927 5926 5925 5924 5923 5923 5922 5922 5922 5921 5921 5920 5920 5920 5920 5920 5920 5919 5919 5919 5919 5919 5919 5918 5918 5918 5918 5917 5917 5917 5916 5916 5916
5909 5910 5912 5913 5915 5917 5918 5920 5921 5922 5923 5924 5925 5926 5927 5927 5928 5929 5930 5930 5931 5932 5933 5934 5934 5935 5935 5936 5936 5937 5937 5938 5938 5938 5938 5937 5937 5937 5937 5936 5936 5936 5935 5935 5934 5934 5933 5933 5932 5931 5930 5929 5928 5927 5925 5924 5923 5923 5922 5922 5921 5921 5920 5920 5920 5919 5919 5919 5919 5919 5919 5918 5918 5918 5918 5917 5917 5917 5917 5917 5917 5916 5916 5915 5915
5909 5910 5911 5912 5914 5916 5918 5920 5921 5922 5923 5924 5924 5925 5926 5927 5928 5929 5930 5930 5931 5932 5933 5933 5934 5935 5935 5936 5936 5937 5937 5937 5938 5938 5937 5937 5937 5936 5936 5936 5936 5936 5935 5935 5934 5934 5934 5933 5932 5931 5931 5930 5929 5927 5926 5925 5924 5923 5923 5922 5922 5921 5921 5920 5919 5919 5919 5919 5918 5918 5918 5918 5917 5917 5917 5916 5916 5916 5916 5916 5916 5916 5916 5915 5915
5908 5909 5910 5912 5913 5915 5917 5919 5920 5921 5922 5923 5924 5925 5926 5927 5928 5929 5930 5930 5931 5932 5932 5933 5933 5934 5935 5935 5936 5936 5937 5937 5937 5937 5937 5936 5936 5936 5936 5936 5936 5936 5936 5935 5935 5935 5934 5934 5933 5932 5931 5931 5930 5928 5927 5926 5925 5924 5924 5923 5923 5922 5921 5920 5919 5919 5918 5918 5918 5918 5917 5917 5917 5916 5916 5915 5915 5915 5915 5915 5915 5915 5915 5915 5914
5908 5909 5910 5912 5913 5914 5916 5917 5919 5920 5921 5922 5924 5925 5926 5927 5928 5928 5929 5930 5930 5931 5931 5932 5933 5934 5934 5935 5935 5935 5936 5936 5937 5937 5936 5936 5935 5935 5935 5935 5936 5936 5935 5935 5935 5935 5935 5934 5933 5933 5932 5931 5930 5929 5929 5927 5926 5926 5925 5924 5923 5922 5922 5921 5920 5919 5918 5917 5917 5917 5916 5916 5916 5915 5915 5914 5914 5913 5913 5913 5913 5913 5913 5913 5913
5907 5908 5910 5911 5912 5913 5914 5916 5918 5919 5921 5922 5923 5925 5925 5926 5927 5928 5928 5929 5929 5930 5931 5932 5932 5933 5934 5934 5935 5935 5935 5936 5936 5936 5935 5935 5935 5935 5935 5935 5935 5935 5935 5935 5935 5935 5934 5934 5933 5933 5932 5932 5931 5930 5929 5928 5927 5926 5926 5925 5924 5923 5922 5921 5920 5919 5918 5917 5916 5916 5915 5915 5915 5914 5914 5913 5913 5912 5912 5912 5912 5912 5912 5912 5911
5905 5906 5908 5909 5911 5912 5914 5916 5917 5918 5920 5921 5923 5924 5925 5926 5927 5927 5928 5929 5930 5930 5931 5932 5932 5933 5933 5933 5934 5934 5935 5935 5935 5935 5935 5934 5934 5934 5934 5935 5935 5935 5935 5935 5935 5935 5934 5934 5933 5933 5932 5932 5931 5930 5930 5929 5928 5927 5926 5925 5924 5923 5922 5921 5920 5919 5918 5917 5917 5916 5915 5914 5914 5913 5913 5913 5912 5912 5911 5911 5911 5910 5910 5909 5909
5904 5905 5907 5908 5910 5912 5913 5914 5916 5917 5919 5921 5922 5923 5924 5925 5926 5927 5928 5929 5929 5930 5931 5931 5932 5932 5932 5933 5933 5933 5934 5934 5935 5934 5934 5934 5934 5934 5934 5934 5934 5934 5934 5935 5935 5935 5934 5933 5933 5933 5932 5932 5931 5931 5930 5929 5928 5927 5926 5926 5925 5924 5923 5922 5920 5919 5918 5917 5917 5916 5915 5914 5913 5913 5912 5912 5912 5911 5911 5910 5910 5909 5908 5908 5907
5903 5905 5906 5907 5908 5910 5911 5913 5914 5916 5918 5919 5921 5922 5923 5924 5925 5926 5927 5928 5929 5930 5930 5931 5931 5931 5931 5932 5932 5932 5933 5933 5933 5933 5933 5933 5933 5933 5934 5934 5934 5934 5934 5934 5934 5934 5934 5933 5933 5933 5932 5932 5931 5931 5930 5929 5929 5928 5927 5926 5924 5923 5922 5921 5920 5919 5918 5917 5916 5915 5915 5914 5913 5913 5912 5911 5911 5911 5910 5909 5908 5908 5907 5906 5906
5902 5903 5904 5906 5907 5909 5910 5912 5913 5914 5916 5917 5919 5920 5921 5923 5924 5925 5926 5926 5928 5929 5929 5930 5930 5930 5931 5931 5931 5931 5931 5932 5932 5932 5932 5933 5933 5933 5933 5933 5933 5933 5934 5934 5934 5934 5933 5933 5933 5932 5932 5932 5931 5931 5930 5929 5928 5927 5926 5925 5924 5923 5922 5920 5919 5918 5918 5916 5915 5914 5914 5913 5913 5912 5912 5911 5910 5910 5909 5908 5907 5907 5906 5905 5904
5902 5903 5904 5905 5906 5908 5909 5911 5912 5913 5914 5916 5917 5919 5920 5922 5923 5924 5924 5925 5926 5927 5928 5929 5929 5929 5930 5930 5930 5930 5931 5931 5931 5931 5931 5932 5932 5932 5933 5933 5933 5933 5933 5933 5933 5933 5932 5932 5932 5932 5932 5931 5931 5931 5930 5929 5928 5927 5926 5925 5924 5923 5922 5920 5919 5918 5917 5915 5914 5913 5912 5912 5912 5911 5910 5910 5909 5908 5908 5907 5906 5905 5904 5904 5903